sat.trackr.live / text

‹ back to catalog

STARLINK-4055

NORAD 53161 · 2022-083AF

PAYLOAD ACTIVE UNKNOWN

§ Identity

Operator
Country
US
Launch date
2022-07-17
Launch site
AFETR
Launch vehicle
Mass (kg)
RCS (m²)

Purposes: comms

External: N2YO · Heavens-Above · Gunter

§ Orbital elements

Epoch: 2026-05-24T19:22:48.836352Z

Period
95.44 min
Inclination
53.2136°
Eccentricity
0.0001005
Mean motion
15.08834626 rev/d
Perigee alt
539.1 km
Apogee alt
540.5 km
Semi-major
6,917.9 km
B*
5.8576e-6
RAAN
182.4163°
Arg perigee
76.1816°
Mean anomaly
283.9288°
Rev number
21,285

§ Raw data

STARLINK-40551 53161U 22083AF  26144.80750968 -.00000195  00000+0  58576-5 0  99922 53161  53.2136 182.4163 0001005  76.1816 283.9288 15.08834626212859

JSON: /api/v1/satellites/53161 · /tle

For live sub-satellite position, see the globe view (requires WebGL).

§ Visibility from observer

Set your observer location to see the next 7 days of passes ≥ 10°. The values pass through the URL so the page stays shareable.

No JS? Fill the form by hand. The geolocation button needs JavaScript.